STARLINK-2542 (48292 NORAD) Tracking and Keplerian Element Data

This shows tracking and keplerian element data for the satellite.

Feedback or suggestion? Click here.




ElementValue
Catalog48292
NameSTARLINK-2542
Epoch Orbit362
Epoch Day210.91668981
Epoch Year2021
RAAN80.366
Inclination53.0559
Eccentricity0.0001625
Argument of Perigee59.3261
Mean Anonmoly145.5058
Mean Motion15.06395499
Decay Rate-1.659E-05
L11 48292U 21036S 21210.91668981 -.00001659 00000-0 -92505-4 0 9999
L22 48292 53.0559 80.3660 0001625 59.3261 145.5058 15.06395499 3627

Live tracking and technical data element details for STARLINK-2542 (NORAD 48292). STARLINK-2542 can be tracked NOW for your location showing map with azimuth and elevation plus other details from your city location.

Track the satellite on the map from your city or location and see movement details for azimuth, elevation, latitude, longitude, range, height, and movement on the map or in text.







IsCatalogInMostPopularTable: catalog: 48292, numindb: 31
Update: records affected: 1



GetName: 48292 STARLINK-2542

Hit Count: updated at: Sat, 31 Jul 2021 15:28:58 GMT